Wind_Speed
15 16 15 15 14 14 13 12 13 13 13 11 12 14 15 16 17 17 16 16 15 14 14 13 13 15 16 17 17 18 20 22 23 23 22 23 23 23 22 22 21 22 24 25 24 22 20 20 20 19 19 19 19 19 18 16 15 15 16 16 16 15 13 14 13 12 12 10 8 13 18 17 16 15 13 13 13 13 13 11 11 12 11 11 11
14 15 16 16 16 15 15 14 13 14 13 12 12 13 15 15 16 17 18 18 17 17 17 16 16 16 16 18 18 19 21 22 23 24 23 23 22 23 23 22 22 23 25 25 23 21 20 20 19 19 19 19 19 19 18 17 16 16 16 16 16 16 14 15 15 13 14 12 8 11 18 19 17 16 14 12 12 12 12 11 10 11 12 12 11
12 13 15 16 17 16 17 16 15 15 15 14 13 13 14 14 16 18 20 20 20 21 20 19 19 18 17 18 19 20 22 23 24 24 23 22 22 22 23 22 22 23 25 24 22 21 21 20 19 19 19 19 19 18 19 18 17 17 17 15 15 16 14 14 15 14 14 13 9 10 18 19 17 15 14 12 12 12 12 11 11 12 12 12 12
13 13 14 15 16 17 17 18 17 16 15 16 16 16 15 15 16 18 20 21 22 23 23 22 21 19 19 19 20 21 22 23 24 23 23 23 22 22 22 21 21 23 23 23 23 23 22 21 19 19 19 18 18 19 20 19 18 18 18 17 17 16 15 14 16 16 15 14 11 10 15 18 16 15 14 13 12 12 12 12 12 12 13 13 13
17 16 15 14 14 15 17 18 19 18 17 17 19 20 19 19 18 18 19 21 22 24 24 23 22 20 20 21 21 22 22 23 24 23 23 23 21 21 21 21 22 22 23 24 24 23 23 21 19 19 18 18 18 18 20 19 18 17 18 19 19 17 16 15 16 17 16 15 14 12 14 16 16 15 14 13 13 12 12 12 12 13 14 14 14
20 21 20 18 16 15 15 17 19 20 20 19 20 21 22 22 21 20 20 20 22 23 24 23 22 21 21 22 22 22 23 23 23 23 23 22 21 21 20 20 21 22 24 25 24 22 22 20 19 19 19 18 17 18 19 19 18 17 18 19 19 19 19 17 17 19 18 17 16 15 13 15 16 15 15 14 14 13 12 12 11 12 13 14 14
23 23 23 23 21 18 16 15 16 18 21 21 21 22 22 23 23 23 22 22 22 22 23 23 23 22 22 22 23 23 23 23 22 22 22 21 21 20 19 19 21 22 23 24 24 22 21 19 19 19 18 17 17 17 17 18 18 18 18 18 18 19 19 18 19 21 20 19 18 17 15 15 15 15 14 14 14 14 14 14 13 12 11 12 13
24 24 24 24 24 22 20 17 16 16 17 19 20 21 23 24 24 23 23 23 23 22 22 23 24 23 22 23 24 24 24 23 23 23 22 21 20 19 19 20 21 21 22 23 24 22 20 19 18 18 17 16 16 16 16 16 16 16 17 17 18 19 18 18 19 20 18 19 20 19 17 16 15 15 14 14 15 16 15 14 14 13 11 10 12
24 24 24 25 25 24 22 20 18 16 15 17 18 18 20 22 24 23 23 24 24 24 24 24 24 23 22 24 26 26 25 24 24 23 22 21 20 19 19 20 20 20 21 21 21 20 18 18 17 17 17 16 16 16 16 16 15 15 16 17 17 18 17 17 18 18 16 19 23 22 20 18 17 16 15 14 16 15 14 12 13 12 11 9 10
24 24 24 25 25 25 24 21 18 14 13 14 15 15 15 17 20 22 22 23 25 26 25 25 26 25 23 25 27 26 25 25 23 22 22 21 20 18 19 20 20 20 19 18 18 18 18 18 17 16 16 15 15 16 16 16 15 15 15 16 16 16 17 17 17 17 18 21 23 23 22 20 18 16 14 14 15 14 12 11 11 11 10 9 9
24 25 25 26 27 28 27 22 17 13 11 11 11 12 13 14 15 17 19 20 22 25 25 26 27 27 25 26 27 27 26 25 23 22 22 21 19 18 18 18 19 20 19 17 16 17 17 18 17 15 13 12 13 14 14 15 16 16 15 16 16 16 17 17 17 17 18 20 23 24 24 21 17 15 14 14 14 13 11 10 10 10 10 9 9
26 26 27 27 28 30 30 25 19 17 15 14 13 12 11 12 13 14 16 16 18 20 21 23 25 26 26 27 27 27 26 26 24 22 21 20 19 18 18 17 18 19 19 17 16 17 17 17 15 12 11 11 11 12 13 14 15 15 14 15 16 17 17 18 17 18 18 20 23 24 23 19 16 14 13 13 13 12 10 10 11 11 11 10 10
28 28 28 29 30 32 31 28 24 22 20 18 17 16 14 14 15 16 17 16 16 16 17 20 22 25 26 27 27 26 26 25 24 23 21 19 18 17 17 17 18 18 19 19 17 17 16 14 12 11 11 11 11 12 13 13 13 13 13 14 15 16 17 18 17 17 18 19 20 21 21 18 16 14 12 11 11 11 11 11 11 11 11 11 12
30 31 30 30 32 32 32 30 27 25 24 21 18 17 18 18 19 20 20 19 18 19 20 22 25 28 27 26 26 25 26 26 25 23 20 18 17 17 18 18 18 18 19 19 17 16 14 12 9 9 9 10 11 12 13 13 12 12 13 13 13 14 15 15 15 16 17 16 16 19 21 19 16 15 15 12 10 10 10 10 10 10 11 12 13
32 33 33 32 32 32 32 30 28 26 25 23 19 17 17 19 20 22 21 20 20 21 23 25 28 30 28 27 27 26 27 27 24 22 20 18 18 19 19 19 18 19 19 18 17 15 13 11 9 7 7 8 10 11 12 12 11 11 12 13 13 13 13 12 11 11 12 13 13 16 20 19 15 14 14 12 10 10 9 9 9 9 10 10 11
33 34 35 34 32 31 31 30 28 26 26 24 21 18 17 17 18 19 19 18 17 18 22 25 28 29 28 27 27 28 28 27 24 21 20 19 19 20 20 18 18 19 20 19 17 16 13 11 9 7 6 7 9 10 10 10 10 11 12 13 12 11 11 11 10 9 9 10 10 12 16 16 12 10 10 9 8 8 7 7 8 8 8 9 10
34 34 35 34 33 32 31 29 27 24 24 25 24 22 21 19 17 15 14 12 11 11 15 19 21 24 25 25 25 27 28 27 25 22 19 18 19 19 19 18 18 20 20 19 18 17 14 12 10 8 5 6 8 9 9 10 10 10 10 11 11 12 12 12 11 9 9 9 9 11 12 12 10 8 7 6 6 6 6 7 8 8 8 8 9
33 33 33 33 32 32 31 29 27 24 23 23 22 20 20 18 16 13 10 5 2 4 6 8 10 14 19 21 22 25 26 24 22 20 18 16 17 17 17 18 18 19 19 19 18 17 15 14 12 9 7 6 8 9 9 9 8 8 9 12 14 14 13 13 11 11 10 8 8 8 8 8 8 7 6 6 6 6 7 8 8 9 10 10 12
32 31 30 30 30 30 29 28 28 26 23 21 19 18 17 17 15 12 10 6 4 5 2 4 5 7 12 15 16 20 23 24 22 21 20 18 16 15 15 16 17 18 19 20 19 18 16 15 14 12 9 8 9 9 9 9 9 10 11 13 13 11 10 9 9 8 8 8 7 7 7 7 6 5 5 5 6 7 8 9 10 11 12 12 13
30 29 28 28 28 28 28 27 27 26 24 20 17 15 14 14 13 13 12 10 9 8 6 5 7 9 10 11 11 13 18 21 22 22 20 18 15 13 14 15 16 17 18 18 18 17 17 16 16 15 12 11 11 10 10 9 10 10 11 10 9 8 9 9 8 8 7 7 6 6 6 6 5 5 6 7 8 10 11 11 11 12 12 12 13
28 27 26 26 26 26 27 26 25 25 23 20 17 16 14 12 12 12 12 10 9 10 11 10 11 12 11 9 9 9 11 14 16 17 15 14 12 11 12 13 13 14 15 15 15 16 17 18 18 17 15 13 13 13 12 11 11 11 10 8 7 6 8 8 8 7 7 6 6 6 6 7 7 8 8 9 10 10 10 10 11 11 11 10 10
25 25 24 24 25 25 25 26 25 23 22 20 18 18 16 13 11 10 9 9 9 10 10 9 9 9 7 4 4 6 7 7 9 11 11 11 10 10 9 10 10 10 12 14 15 17 18 18 18 18 17 16 16 15 14 13 13 11 10 9 8 7 8 8 8 8 8 7 8 8 8 8 8 8 8 9 9 8 8 8 8 8 8 8 8
25 24 23 23 24 24 24 24 24 22 20 19 18 18 17 15 14 11 8 7 7 9 9 8 7 6 5 5 5 6 7 8 9 10 11 10 10 9 8 8 8 9 10 13 16 18 18 19 19 19 19 18 17 16 15 14 13 12 11 9 9 8 8 9 9 9 9 9 9 9 8 8 8 7 7 7 7 6 6 6 5 6 6 6 7
26 26 24 23 23 24 23 22 21 20 19 18 18 18 18 17 16 15 12 9 7 8 9 9 8 7 6 5 4 5 7 9 11 10 10 10 10 10 8 8 8 9 10 12 16 18 18 19 19 18 17 17 16 15 14 13 12 12 11 11 10 10 10 10 10 10 9 9 8 8 7 7 6 5 5 5 4 3 3 3 4 4 5 5 6
28 28 26 23 22 23 22 20 18 17 16 17 17 18 18 17 16 16 16 14 12 11 10 9 8 7 6 5 5 5 6 8 10 10 9 8 9 9 9 10 9 9 11 13 16 17 17 17 16 15 14 14 13 13 13 12 12 12 12 12 12 11 11 10 10 9 8 7 7 7 6 5 4 4 3 3 2 1 1 2 3 3 4 4 5
26 27 27 26 23 21 21 20 18 17 16 16 16 17 19 18 16 16 17 17 15 14 12 11 10 11 11 11 11 11 10 11 11 13 13 12 11 11 10 10 10 9 11 14 15 15 15 14 13 12 11 11 10 10 12 13 13 13 12 11 10 10 10 9 8 7 6 6 6 6 6 5 4 4 2 1 1 1 1 2 2 3 3 3 4
24 25 26 27 26 24 22 21 19 19 18 18 18 18 19 19 19 20 21 21 19 16 13 11 10 10 11 14 16 17 17 18 18 18 17 16 15 14 12 12 11 10 10 12 11 10 10 10 9 9 8 8 8 9 12 13 12 11 11 10 9 8 8 8 7 7 7 7 7 7 6 5 4 3 2 2 1 1 1 1 1 2 2 3 3
22 23 24 25 25 26 26 25 23 21 20 20 20 20 20 20 20 21 22 22 21 19 16 13 11 9 7 7 8 11 14 16 18 20 20 19 18 17 16 15 15 14 13 12 11 10 10 10 9 9 8 8 8 9 11 11 10 10 10 10 9 9 9 8 8 8 8 8 7 6 6 5 5 4 3 2 2 2 2 2 2 2 2 2 2
20 21 22 23 24 24 25 26 26 24 23 23 23 22 21 20 20 20 21 20 19 17 16 15 14 11 8 6 6 7 8 10 12 16 18 19 19 19 18 17 17 16 15 13 10 9 8 8 8 7 7 7 8 9 9 9 9 10 10 10 10 10 9 9 9 8 8 8 7 7 6 6 5 5 4 4 3 3 4 3 3 4 4 3 2
20 20 20 21 23 23 23 24 24 24 24 25 25 23 22 21 22 23 23 22 20 18 16 16 15 13 10 10 11 13 15 16 16 17 18 18 18 17 17 17 16 15 14 12 9 7 5 4 4 4 5 6 6 8 9 9 10 11 11 11 10 10 10 9 9 9 8 8 8 7 7 7 6 6 6 5 5 5 5 5 5 5 4 4 4
20 21 20 20 20 21 22 23 23 22 22 22 23 23 22 22 22 22 23 23 23 21 20 20 19 17 14 12 13 16 18 19 18 17 17 17 17 16 16 15 14 14 13 11 9 7 5 4 3 4 5 6 7 9 10 10 11 11 12 12 11 11 10 10 10 10 9 8 8 8 8 7 7 7 7 7 7 7 7 7 6 5 5 5 4
20 20 19 19 19 19 20 21 22 22 21 20 20 21 21 21 20 20 20 21 21 22 22 22 22 21 19 17 16 16 17 16 15 15 14 14 14 14 14 14 14 14 12 11 10 9 6 5 5 6 6 7 9 10 11 11 11 11 11 12 12 12 11 11 11 10 9 9 9 8 8 8 8 8 8 8 8 8 7 7 6 6 6 6 5
18 19 19 19 18 18 18 19 20 20 21 20 19 19 19 19 19 19 19 18 18 19 19 20 20 20 19 18 17 16 16 16 16 15 14 13 13 13 12 11 12 11 10 9 10 10 8 7 7 7 8 8 10 10 10 10 11 11 11 12 12 12 12 12 11 10 9 9 9 9 9 10 10 10 9 9 9 8 8 8 8 7 7 7 7
17 18 19 19 18 18 18 18 18 18 18 18 18 17 18 18 18 18 18 18 17 17 17 16 16 16 16 16 15 13 13 12 12 11 11 11 11 11 10 10 10 9 9 8 9 8 7 6 7 8 8 9 9 10 11 11 11 11 12 12 13 13 13 12 11 10 10 10 10 10 10 10 10 10 10 10 9 9 9 9 9 9 9 9 8
18 17 17 17 17 18 18 18 18 17 16 16 16 16 16 16 16 15 16 17 17 17 17 15 14 14 13 13 13 12 11 9 7 6 4 5 6 7 8 8 9 9 8 8 7 6 5 6 6 8 9 10 10 11 11 12 12 12 12 13 13 13 13 11 11 10 10 10 10 10 11 10 10 10 10 10 9 10 10 11 11 11 12 12 10
18 18 17 15 15 16 17 17 16 16 15 14 15 15 14 14 14 14 14 15 15 16 16 15 14 13 12 11 10 10 10 9 8 6 4 3 3 4 5 6 7 8 8 7 4 4 5 6 7 9 10 11 11 11 11 12 12 12 12 12 13 13 12 11 11 11 10 10 11 11 10 10 11 11 11 10 11 10 11 12 12 12 12 12 11
16 17 17 15 13 14 15 17 17 17 16 14 13 13 13 13 12 11 12 14 14 15 15 15 13 12 11 11 10 8 7 6 6 5 4 4 4 4 5 7 8 8 8 6 3 3 5 7 9 10 11 11 11 10 11 11 11 12 12 12 12 12 12 11 11 11 10 11 11 11 11 11 11 12 12 12 12 11 11 12 12 11 11 12 11
14 15 15 14 13 12 14 15 17 19 20 18 15 12 11 12 12 11 10 11 12 13 14 14 12 11 11 12 12 11 9 6 4 3 2 2 2 3 5 6 6 6 6 4 2 4 6 8 10 11 11 11 10 10 10 10 11 11 12 12 12 12 12 12 11 10 10 11 11 11 12 12 12 13 14 13 12 11 11 12 12 11 11 11 11
13 13 13 13 12 11 12 13 15 17 20 21 20 16 12 10 11 11 10 9 10 11 13 13 11 10 10 13 14 14 13 10 6 4 3 3 3 4 4 5 4 4 4 1 3 5 7 9 11 11 11 9 9 9 9 10 11 11 11 11 12 12 11 11 10 10 10 11 11 11 12 12 13 13 14 13 13 13 12 12 13 12 11 10 10
12 12 12 11 10 9 10 11 13 15 17 20 22 22 18 13 10 10 10 10 10 11 12 11 9 8 10 14 16 18 17 13 9 5 3 3 3 3 4 4 3 3 2 2 6 8 9 10 11 11 10 9 9 9 9 10 11 11 11 11 11 10 10 10 10 9 10 10 10 11 11 12 12 13 13 13 13 13 13 12 12 12 12 11 11
12 12 11 10 9 8 8 9 10 12 14 16 18 21 22 18 12 10 10 10 10 11 11 9 6 6 10 14 17 19 17 14 10 6 3 1 1 2 3 3 2 1 2 5 8 10 11 11 11 11 10 9 9 9 9 10 10 10 10 10 9 9 9 8 8 8 9 9 9 9 9 10 11 11 11 11 12 12 11 10 10 9 9 9 9
12 11 10 9 8 7 7 8 9 10 11 14 16 18 20 20 16 11 9 10 10 10 9 7 4 6 9 13 17 19 18 13 9 7 4 1 1 3 4 4 3 4 5 8 10 10 10 10 10 10 9 9 9 9 9 9 9 9 9 9 8 8 7 7 7 7 7 6 6 6 7 8 9 9 9 9 10 9 9 8 9 8 8 8 8
10 11 11 9 7 7 8 8 8 9 9 10 13 15 15 17 17 14 9 8 9 9 8 6 4 5 8 12 16 18 17 13 9 7 4 2 1 3 4 4 6 7 9 10 10 10 9 8 8 8 8 8 8 8 8 9 9 9 8 7 7 6 6 6 6 6 6 5 5 5 5 6 7 7 6 6 7 8 7 8 9 9 9 9 9
10 12 12 10 7 6 7 8 8 8 7 7 10 13 14 14 15 15 11 8 6 7 8 7 4 4 7 10 13 16 15 12 9 6 5 4 3 4 5 6 8 9 11 11 10 9 9 8 7 6 6 7 7 7 7 7 7 7 7 7 6 5 5 5 6 6 5 4 4 5 5 5 5 6 5 5 7 7 7 7 8 9 9 8 8
11 12 12 11 7 5 6 7 8 8 7 6 8 11 12 13 13 14 13 10 6 5 7 8 6 3 5 8 10 12 14 12 9 6 5 4 4 5 6 7 8 9 10 10 10 9 9 8 6 6 5 5 5 6 6 6 6 6 6 6 6 5 5 5 5 5 4 4 4 5 5 5 5 5 4 5 6 6 6 6 6 7 8 7 6
12 12 12 10 8 6 5 6 7 8 8 8 8 9 11 12 12 11 12 11 9 7 7 7 6 4 3 4 7 10 12 12 9 6 4 4 4 4 5 6 7 8 8 8 8 8 7 7 6 5 5 4 4 4 4 5 5 5 5 5 5 5 5 5 5 5 4 4 4 5 5 4 3 3 3 3 3 4 4 4 4 5 6 6 5
12 13 12 10 9 7 6 7 7 8 8 9 9 9 10 11 12 12 11 11 10 9 8 8 7 6 5 2 3 7 10 11 10 7 4 3 2 3 4 4 5 6 6 6 6 5 5 5 5 5 4 4 4 4 4 4 4 4 4 4 4 5 5 5 5 5 5 4 4 4 4 4 2 1 1 1 1 2 2 2 3 3 3 4 5
12 13 12 10 8 7 7 8 8 8 9 9 9 9 10 11 13 13 13 13 12 10 9 8 7 6 5 4 1 3 5 8 10 9 6 3 1 2 3 3 4 4 4 4 4 4 4 4 4 4 4 4 4 4 4 4 3 3 3 4 4 5 5 5 5 5 5 4 4 3 3 2 2 1 0 1 2 2 1 1 1 2 2 2 4
13 13 12 9 6 5 6 8 9 8 9 9 9 9 10 12 13 14 14 14 12 10 8 7 7 6 5 5 4 2 1 3 6 8 8 6 2 1 2 3 3 4 4 4 4 4 4 4 4 4 4 4 3 3 3 3 3 3 3 4 4 5 5 5 5 5 5 4 4 3 2 1 1 1 0 0 1 1 0 1 1 1 1 1 2
14 13 12 9 7 6 7 8 8 9 9 9 9 9 10 11 12 14 15 15 11 7 6 7 6 5 5 6 5 4 3 2 2 4 7 7 5 1 2 3 3 4 4 4 4 4 4 4 4 4 3 3 2 2 2 2 2 2 3 3 3 4 4 5 5 4 4 4 3 2 1 1 0 1 2 2 3 2 2 2 2 2 2 1 0
14 14 13 11 9 9 9 10 10 11 11 10 10 11 10 11 11 13 15 14 9 4 5 6 7 6 5 7 7 6 4 3 2 2 3 6 6 4 1 4 4 4 4 4 4 3 3 3 4 4 3 3 3 2 2 2 2 2 2 3 3 4 4 4 4 4 3 3 2 2 1 1 2 2 3 4 5 5 5 4 4 3 3 3 2
Wind_Direction
328 324 318 311 304 298 293 291 289 283 275 271 273 270 268 269 266 260 257 259 260 258 257 259 263 266 262 251 239 232 229 229 230 233 234 234 234 233 232 230 227 226 225 227 227 222 212 207 209 211 211 210 209 208 207 208 210 210 210 212 213 211 202 201 209 215 214 217 222 213 208 204 205 204 204 203 201 198 200 204 208 206 203 199 195
327 321 318 315 309 301 293 287 283 282 280 275 274 270 264 260 257 252 250 254 259 260 260 262 262 261 256 247 238 230 225 225 228 231 234 235 233 231 228 225 224 226 225 224 225 221 213 208 210 211 210 211 210 208 208 208 207 207 209 213 217 216 208 202 206 213 217 220 227 211 200 198 202 204 204 203 198 197 200 204 208 208 207 206 203
342 332 325 320 314 306 299 292 283 278 279 273 266 267 265 258 253 249 247 248 252 254 256 256 257 256 249 241 236 230 224 223 226 229 231 233 232 228 225 223 225 226 226 225 223 219 216 214 213 212 209 209 209 208 208 208 207 207 209 213 219 219 213 207 206 210 214 218 222 208 197 197 200 200 200 199 195 196 200 204 207 208 208 209 209
5 354 343 331 320 310 301 295 290 286 283 275 267 265 265 262 260 256 250 245 244 247 249 249 249 248 243 238 234 230 224 223 225 227 229 231 229 225 223 224 226 226 225 225 221 216 218 218 215 212 210 209 209 209 210 210 209 208 209 212 218 219 217 214 211 210 210 211 211 202 197 199 199 197 197 197 197 199 203 208 210 210 209 209 210
12 7 1 352 337 321 307 296 291 288 285 278 272 268 266 264 263 261 256 249 246 246 247 245 244 242 240 237 233 230 227 225 225 225 225 226 224 223 223 223 225 224 224 225 221 217 219 219 215 213 211 210 210 210 211 212 211 210 210 213 217 220 220 219 218 213 208 209 212 204 198 200 201 202 204 205 206 208 209 213 216 218 217 214 212
13 12 9 6 360 347 329 310 295 289 285 281 276 273 270 267 265 263 260 256 254 253 249 244 241 240 238 234 232 231 229 226 225 222 221 222 221 221 221 220 220 220 223 224 220 218 219 217 212 213 212 211 212 213 214 215 215 214 214 215 217 221 223 222 223 220 212 210 215 210 202 202 203 206 211 215 218 219 219 222 225 227 227 224 220
12 10 7 5 2 358 348 333 314 299 290 285 281 277 273 269 265 262 259 256 256 256 253 247 243 241 237 232 231 229 228 227 223 218 218 219 219 216 215 217 215 216 222 221 215 214 216 213 209 210 211 213 215 217 218 219 220 219 219 220 219 222 224 222 226 229 220 210 214 214 206 203 205 209 214 218 223 226 226 228 231 234 235 233 229
10 8 5 2 358 355 351 343 332 316 299 290 285 281 277 274 271 266 259 255 254 254 253 249 246 243 237 230 228 227 226 225 219 216 217 217 215 213 214 215 212 213 220 218 210 208 207 204 204 206 207 210 213 216 217 220 222 222 222 223 222 224 225 222 228 235 224 211 215 217 211 208 212 215 218 221 224 225 227 231 236 240 241 238 233
9 7 4 2 359 356 352 346 338 326 307 291 283 280 278 276 274 271 265 260 256 253 251 248 247 247 240 229 226 225 222 219 214 214 215 214 211 211 214 212 209 210 217 215 206 200 197 195 197 201 204 205 208 212 215 218 220 223 224 223 222 225 226 224 226 229 221 214 216 216 214 216 218 221 223 222 223 224 226 231 238 241 241 241 237
10 9 8 8 6 4 357 348 341 334 315 296 289 288 287 280 274 272 269 264 260 256 251 247 245 247 243 230 224 223 218 212 211 213 214 214 212 212 213 211 208 210 214 211 201 193 192 190 191 197 202 204 208 213 215 216 218 221 221 218 218 223 227 226 223 221 219 218 217 216 218 220 222 227 228 222 220 221 222 225 232 236 235 236 238
12 12 12 12 11 10 5 356 351 353 344 326 314 304 296 288 280 274 270 267 262 257 253 250 246 245 242 232 224 221 215 208 208 211 213 213 212 212 212 209 207 209 209 205 197 189 186 185 186 193 200 205 211 215 216 216 217 219 218 216 216 218 222 225 225 223 220 219 218 217 218 221 223 229 229 221 216 216 216 219 225 231 231 230 237
15 14 14 13 13 13 10 5 5 5 359 350 339 325 310 304 298 289 282 276 266 257 253 253 248 243 237 229 222 219 214 208 208 209 208 207 207 208 209 205 204 203 197 191 189 186 184 184 189 199 210 216 219 220 220 218 217 219 220 220 220 217 217 221 225 226 225 224 223 217 215 221 225 224 224 221 217 214 211 215 222 228 233 235 242
18 15 15 14 14 13 11 10 10 7 1 352 341 333 327 321 315 307 300 292 281 270 264 261 257 248 237 226 218 215 211 207 205 202 198 199 201 202 200 198 199 197 187 182 185 187 187 190 197 209 220 225 222 220 221 219 219 221 221 221 221 220 220 220 223 229 228 229 230 219 213 221 229 229 230 225 216 216 215 217 222 227 236 245 251
20 17 16 14 13 13 11 9 10 10 5 356 343 332 325 319 314 311 305 297 288 279 270 263 257 250 238 223 214 212 209 204 199 193 191 195 196 192 190 191 195 192 185 183 187 189 189 192 199 208 217 220 219 218 218 218 220 220 220 220 220 221 224 223 224 229 226 224 225 215 211 223 235 236 233 224 212 216 220 222 228 233 241 251 256
19 17 16 15 13 12 11 8 8 11 9 2 353 340 327 318 313 310 305 296 285 273 263 254 247 240 231 218 211 208 202 195 190 188 189 191 189 184 184 188 192 192 189 189 191 189 188 190 193 203 214 217 216 215 213 214 215 214 216 222 224 223 220 212 207 211 210 212 216 209 211 227 236 226 218 211 206 215 220 223 231 238 245 253 259
19 16 15 14 11 10 12 11 7 9 11 10 9 5 354 338 323 315 307 297 285 269 256 245 235 228 221 212 205 201 196 186 180 183 184 183 182 182 184 188 191 193 192 192 191 188 187 189 193 201 212 213 209 206 201 201 205 210 214 218 219 214 203 192 189 193 197 206 212 206 209 220 220 201 193 193 197 207 214 224 237 245 252 259 266
19 15 14 14 12 9 11 14 11 8 9 12 15 18 16 4 345 331 318 301 282 259 244 233 220 211 208 204 199 197 192 181 173 174 175 178 183 186 188 192 194 196 195 193 192 190 189 192 194 198 203 198 197 197 193 191 199 211 214 206 195 187 179 174 170 167 169 176 181 183 189 192 187 181 184 194 206 216 227 239 251 259 261 262 265
19 16 14 13 13 11 9 13 15 13 13 14 13 17 24 23 10 359 344 314 244 192 209 220 206 190 190 195 195 190 183 173 166 166 169 180 190 191 193 195 195 197 197 195 193 194 196 196 196 199 200 185 180 188 192 192 193 195 192 183 173 167 166 165 163 161 161 163 167 177 186 187 186 190 201 217 233 242 248 255 263 267 266 264 265
18 16 14 14 16 15 11 12 16 18 20 23 20 19 27 35 35 31 26 31 85 112 150 243 218 171 171 186 189 180 173 170 169 169 173 183 192 195 198 199 198 198 199 197 197 199 202 201 200 201 198 185 179 185 191 190 185 179 179 180 179 180 181 179 180 182 185 189 195 202 205 202 199 204 221 242 255 261 265 268 268 267 267 268 269
14 14 14 16 18 20 17 15 17 20 22 27 31 30 32 39 48 56 56 54 68 88 106 145 148 134 142 163 172 170 169 167 167 171 176 180 185 191 197 199 198 199 200 200 204 206 206 205 203 199 194 188 187 188 186 188 191 191 191 191 192 200 202 194 186 186 189 194 197 200 203 209 222 237 248 258 263 264 266 267 268 270 272 274 276
9 10 14 18 21 24 24 21 21 24 25 27 34 38 39 40 44 57 67 68 74 86 92 101 106 102 107 124 131 134 141 145 153 163 168 171 175 183 192 197 197 198 200 203 208 211 209 206 201 194 187 187 192 192 188 188 189 190 190 184 179 189 194 188 182 184 190 198 205 211 219 229 240 248 253 257 260 262 266 270 274 277 278 279 280
12 12 17 22 24 28 29 27 27 30 31 32 36 39 43 44 41 44 57 67 73 78 78 80 88 95 104 121 121 119 127 139 155 162 163 166 173 180 191 198 197 199 203 205 206 207 203 199 194 187 183 187 191 191 188 186 183 181 180 177 176 185 192 192 194 196 199 205 212 218 225 232 239 246 253 259 265 273 279 283 285 285 284 282 279
21 20 22 26 27 29 31 32 34 38 41 42 44 45 46 47 46 44 47 58 68 72 71 71 76 94 126 160 164 159 168 179 182 175 168 170 174 178 189 200 202 207 213 209 204 199 193 188 183 179 179 184 185 183 182 182 178 176 178 181 187 194 199 200 200 201 204 210 215 219 224 230 238 247 257 266 276 282 285 287 288 288 289 289 288
28 28 28 29 30 31 33 37 42 49 52 51 50 49 46 43 46 48 48 53 61 68 74 75 72 76 90 105 120 144 167 181 187 182 176 178 180 179 187 197 201 206 208 201 194 189 184 181 176 171 174 181 182 180 181 180 178 177 178 183 189 192 192 193 193 197 203 209 214 220 225 231 239 248 255 260 262 262 270 282 289 294 297 296 296
32 32 32 32 33 34 37 40 44 48 49 46 44 44 38 34 37 42 44 47 54 62 70 77 82 90 92 89 95 111 129 149 159 153 146 156 166 169 176 181 184 194 197 189 184 179 176 175 171 165 170 177 179 181 181 178 177 178 177 180 181 179 179 184 188 193 201 207 212 217 218 217 217 216 215 220 226 236 289 299 301 305 306 307 311
33 33 33 34 36 37 38 39 39 38 35 32 30 32 32 32 36 41 41 41 44 50 57 62 73 86 93 93 92 92 94 105 114 111 108 115 125 132 142 147 150 164 172 166 162 162 161 162 161 160 161 160 161 170 174 169 167 168 170 172 173 170 174 180 185 190 197 200 199 195 188 180 173 165 156 130 57 28 358 332 329 330 329 335 334
31 32 32 34 37 39 38 37 35 35 34 31 29 32 37 41 45 46 44 41 39 40 44 50 59 71 83 90 91 90 90 90 89 87 87 91 96 100 105 108 107 113 123 123 125 133 136 137 141 145 142 136 141 157 162 158 156 159 160 162 164 167 173 177 179 183 184 181 176 169 161 152 138 124 107 89 72 63 66 66 50 14 356 352 341
29 30 31 32 35 37 38 38 37 37 36 35 34 35 37 37 37 38 39 40 40 40 40 44 50 53 66 87 96 95 95 93 89 85 84 84 85 85 86 87 88 90 90 87 90 102 110 114 119 124 126 129 139 149 150 148 151 156 158 160 163 166 166 165 167 169 165 159 154 147 136 125 117 110 103 93 83 70 68 70 68 58 43 26 6
27 28 29 31 33 35 36 36 37 40 44 44 41 40 39 37 37 39 39 40 42 43 43 47 51 53 61 86 109 112 109 104 99 95 93 92 92 91 90 88 87 87 84 80 82 91 101 109 116 121 127 135 145 150 151 154 160 162 160 161 161 157 154 153 154 151 144 137 132 125 118 114 109 101 91 82 73 67 62 58 54 53 53 52 54
30 28 27 28 31 33 35 35 35 40 47 49 47 47 48 48 50 52 51 50 49 50 53 58 60 62 70 89 104 107 106 105 104 102 100 97 95 94 93 91 88 84 81 76 72 71 75 88 104 117 125 134 148 156 158 161 164 160 155 151 146 142 140 139 136 130 124 120 117 111 106 100 94 88 83 78 75 70 64 62 61 58 54 58 68
32 29 27 27 28 29 31 33 35 38 42 45 46 47 48 50 53 57 58 58 57 57 60 64 67 70 77 89 98 100 97 96 96 96 96 96 96 92 87 83 82 79 76 76 73 65 60 63 83 108 121 134 145 148 146 147 148 146 142 138 133 132 133 129 122 116 114 111 107 102 96 92 88 85 81 76 73 71 69 68 69 68 63 62 64
33 32 30 30 29 28 27 29 32 35 36 38 41 43 45 47 50 55 57 59 60 62 65 66 67 68 73 82 90 93 91 89 89 87 85 86 88 85 78 75 76 72 69 71 74 69 68 82 102 115 126 135 137 135 135 136 135 134 135 134 131 130 126 118 111 110 109 106 102 99 96 92 87 84 80 77 75 74 72 69 66 65 62 55 48
36 36 36 35 33 31 28 26 28 30 30 32 37 41 41 41 45 49 52 54 57 60 64 67 68 68 69 73 80 86 89 90 90 86 81 76 75 74 71 72 73 68 62 68 74 76 81 96 110 120 129 133 133 133 134 133 130 130 133 133 128 123 116 108 106 107 104 101 100 97 94 91 88 85 82 79 77 74 71 68 64 62 62 58 51
36 35 37 39 37 33 30 27 26 26 26 27 32 36 38 39 43 49 51 51 52 54 56 60 65 67 67 66 67 72 81 91 96 93 85 79 75 65 57 56 58 54 50 56 65 71 80 94 109 123 130 132 132 133 131 128 127 129 129 125 119 113 108 106 106 105 101 98 96 93 91 90 88 86 83 80 79 77 73 71 69 67 69 69 65
32 31 33 40 42 39 35 32 30 28 26 25 26 28 31 35 41 48 52 50 49 48 48 50 54 57 60 61 59 56 57 63 77 91 96 89 78 60 41 38 40 39 39 45 55 69 84 98 115 127 130 130 132 132 130 127 127 126 122 116 111 108 107 107 105 102 99 98 96 92 91 90 89 88 86 83 82 78 73 70 70 71 74 77 78
29 29 32 40 47 45 40 37 35 32 30 28 25 22 21 23 30 41 46 46 45 44 42 43 45 46 46 48 50 51 50 46 47 51 52 52 54 39 18 18 27 30 29 32 49 86 109 121 130 133 134 134 133 131 128 126 123 119 114 110 109 109 110 109 107 104 103 101 97 94 94 92 90 88 84 79 76 73 70 72 75 76 78 81 82
26 27 31 37 44 44 41 39 38 36 34 30 23 17 13 11 13 24 34 36 35 34 32 34 38 41 39 35 32 32 34 32 30 31 25 14 7 357 348 358 12 18 18 23 50 111 134 138 138 138 137 136 131 126 121 118 115 112 111 110 111 112 111 109 107 105 103 99 96 95 93 89 86 82 78 75 74 73 74 77 80 80 78 77 74
22 24 28 33 36 38 38 37 36 35 33 30 25 18 11 7 3 4 13 21 22 19 16 17 23 31 32 29 25 21 15 5 351 339 329 317 317 320 325 335 348 356 1 15 74 128 140 142 140 139 138 134 125 120 118 115 113 113 114 114 114 112 109 106 104 101 99 97 95 92 88 83 80 78 76 75 77 79 79 79 81 78 71 66 64
18 20 24 27 28 31 33 32 31 31 30 30 27 22 14 8 3 358 354 355 1 6 5 3 9 20 25 21 18 13 4 352 336 309 280 256 247 261 282 298 312 328 339 10 141 148 147 145 142 141 140 135 126 120 119 119 119 118 118 117 115 111 108 106 102 100 98 97 92 88 85 82 79 78 78 79 80 82 82 79 77 73 66 60 60
17 18 19 20 21 26 30 29 27 28 28 27 25 22 18 10 359 355 352 347 347 354 358 355 359 17 21 17 12 6 357 350 344 333 303 260 241 243 255 263 278 300 299 174 158 154 151 147 145 144 144 141 133 129 127 127 127 125 121 117 114 112 111 108 103 98 95 92 89 88 86 85 82 79 79 81 81 80 79 77 73 70 65 61 60
16 15 15 16 15 16 21 20 19 23 26 24 19 18 17 14 5 355 354 353 351 351 351 351 3 27 23 15 10 3 356 351 351 352 347 315 214 205 210 217 225 230 177 159 153 151 149 147 145 146 146 144 140 137 134 132 131 128 124 120 119 117 114 110 104 99 93 91 92 93 91 91 91 88 85 84 80 76 74 70 67 63 58 53 51
12 10 10 11 8 1 359 1 4 13 23 24 19 15 14 15 14 6 355 356 359 355 350 354 21 38 24 15 10 4 359 357 357 0 6 20 187 194 198 197 182 160 153 152 150 148 147 146 143 141 141 141 140 139 137 135 135 134 130 128 127 124 121 119 117 111 105 102 106 107 103 100 99 96 93 89 83 76 73 69 63 58 50 40 37
359 357 356 358 360 356 350 346 347 356 11 20 17 11 6 10 15 13 2 353 356 355 350 355 30 41 22 13 10 6 3 2 3 7 20 49 135 177 180 173 162 154 151 151 151 149 147 145 142 140 139 140 140 140 140 140 141 141 141 140 138 134 133 136 135 128 121 119 126 131 127 115 103 97 98 97 86 77 74 70 61 51 44 39 37
344 346 347 345 342 346 350 343 338 343 352 4 8 3 357 359 6 11 7 356 349 350 346 341 351 26 20 11 10 10 9 8 10 18 37 62 98 132 144 148 151 153 154 154 153 149 146 145 145 145 144 145 145 145 146 147 147 148 150 152 152 150 149 150 148 141 131 125 131 139 138 122 103 95 95 91 80 70 67 64 55 44 39 42 47
336 340 345 344 334 330 343 345 339 335 334 334 344 351 351 349 353 1 5 359 348 348 348 337 329 350 9 6 9 16 17 15 16 26 45 67 96 123 133 140 147 152 156 157 156 154 153 155 158 159 155 153 154 155 155 156 158 160 162 164 167 169 167 162 157 152 143 128 125 133 139 132 112 99 91 81 71 63 58 55 49 41 41 49 57
337 341 346 346 336 323 324 331 335 335 333 326 323 332 343 344 341 346 356 356 348 344 346 337 320 304 317 352 13 21 21 20 20 26 45 71 99 123 134 141 147 152 158 162 164 166 168 169 170 171 170 167 167 172 176 180 184 187 190 188 186 183 180 172 164 159 155 145 132 128 131 130 117 103 96 83 67 55 50 51 47 40 44 53 56
342 346 351 350 342 330 320 317 318 321 327 331 332 334 340 341 336 333 337 341 339 333 332 333 324 302 281 293 22 30 28 26 25 25 31 56 97 126 138 146 151 157 164 171 175 181 185 184 179 173 169 167 168 169 175 182 187 192 195 193 187 183 178 173 168 165 164 161 150 134 125 122 117 111 112 101 83 49 34 36 33 29 42 51 43
350 349 354 357 355 349 345 342 335 324 321 328 337 342 344 345 342 334 326 324 325 323 319 325 333 323 291 263 249 47 38 33 30 27 25 30 75 140 148 155 163 168 175 184 195 200 197 188 180 170 161 156 155 152 150 149 150 154 162 165 165 164 163 162 164 166 164 163 161 155 146 147 149 159 170 129 113 95 71 61 28 10 29 46 33
1 353 351 353 354 351 352 355 354 346 338 335 336 339 344 346 344 338 329 322 315 308 304 311 325 331 314 287 266 263 352 32 31 26 22 17 4 201 181 178 184 189 192 195 199 201 194 182 177 174 168 164 157 151 145 139 135 140 147 150 151 155 158 161 164 166 165 165 165 160 154 154 151 126 32 11 43 51 58 185 220 278 315 22 19
7 1 352 343 331 321 323 331 336 339 341 342 338 336 338 339 338 340 342 338 325 300 289 300 306 310 317 313 296 271 250 254 352 16 18 13 3 313 218 206 200 201 204 201 195 192 190 188 188 188 188 187 186 183 181 179 172 168 169 166 163 167 171 174 177 177 174 174 174 170 157 144 25 315 315 319 324 324 313 283 256 239 222 214 348
6 3 358 348 333 319 313 314 318 322 325 330 334 335 334 332 330 335 343 348 340 293 263 285 295 297 311 317 305 279 248 242 266 312 0 7 5 356 264 217 206 200 200 199 193 187 190 197 203 204 205 208 210 211 212 211 208 206 205 206 204 204 203 203 205 206 204 206 216 229 240 267 289 296 303 313 318 316 308 291 265 240 224 220 225
Height
1509 1507 1506 1506 1505 1504 1504 1503 1503 1502 1501 1500 1500 1499 1499 1500 1501 1502 1502 1502 1503 1504 1504 1505 1507 1508 1509 1509 1510 1510 1511 1513 1515 1517 1519 1520 1521 1522 1524 1525 1527 1529 1530 1533 1535 1536 1538 1539 1541 1542 1543 1544 1546 1547 1549 1550 1551 1552 1553 1554 1555 1557 1558 1559 1561 1562 1563 1564 1565 1565 1566 1568 1569 1570 1571 1571 1572 1573 1574 1575 1576 1576 1577 1578 1579
1508 1507 1506 1504 1503 1502 1501 1500 1500 1499 1499 1499 1498 1497 1497 1497 1498 1499 1499 1500 1501 1501 1502 1502 1504 1505 1506 1506 1507 1508 1509 1511 1513 1514 1516 1517 1518 1519 1521 1523 1524 1526 1527 1530 1534 1536 1536 1537 1539 1540 1541 1542 1543 1545 1547 1548 1550 1551 1552 1553 1554 1555 1556 1557 1559 1560 1561 1562 1563 1564 1564 1566 1567 1568 1569 1570 1571 1572 1573 1574 1574 1575 1576 1577 1578
1507 1506 1504 1502 1501 1499 1498 1497 1497 1497 1497 1497 1496 1495 1494 1494 1495 1496 1497 1498 1499 1499 1500 1500 1501 1502 1503 1504 1505 1506 1507 1508 1510 1512 1513 1514 1515 1517 1518 1520 1522 1524 1525 1528 1531 1534 1535 1535 1536 1537 1538 1540 1541 1542 1544 1546 1548 1549 1550 1551 1552 1553 1555 1556 1557 1559 1560 1561 1562 1562 1563 1564 1566 1567 1568 1569 1570 1571 1572 1572 1573 1574 1574 1575 1576
1507 1505 1504 1501 1499 1497 1496 1494 1494 1494 1494 1494 1493 1493 1493 1492 1493 1493 1494 1495 1496 1497 1497 1498 1499 1500 1500 1501 1502 1504 1505 1506 1507 1509 1510 1511 1513 1514 1516 1519 1520 1521 1523 1526 1529 1531 1533 1533 1534 1535 1536 1537 1539 1540 1541 1543 1545 1547 1548 1550 1550 1551 1553 1554 1555 1557 1558 1559 1560 1561 1562 1563 1565 1566 1567 1568 1568 1569 1570 1571 1571 1572 1573 1574 1575
1505 1504 1502 1500 1499 1496 1495 1493 1492 1491 1491 1491 1491 1490 1490 1491 1491 1491 1492 1492 1494 1494 1495 1495 1496 1497 1498 1499 1500 1501 1502 1504 1505 1506 1508 1509 1510 1513 1515 1517 1518 1520 1521 1524 1527 1529 1531 1531 1532 1532 1534 1535 1536 1538 1539 1541 1543 1545 1546 1547 1548 1550 1551 1552 1554 1555 1556 1558 1559 1560 1561 1562 1563 1564 1565 1566 1567 1568 1569 1569 1570 1571 1571 1572 1573
1503 1502 1500 1498 1497 1496 1494 1492 1490 1489 1489 1488 1488 1488 1488 1489 1489 1489 1490 1490 1490 1491 1492 1492 1493 1494 1495 1496 1498 1499 1500 1502 1503 1504 1505 1507 1509 1511 1513 1515 1517 1518 1520 1522 1525 1528 1529 1529 1530 1530 1532 1533 1534 1535 1537 1539 1541 1542 1544 1545 1547 1548 1549 1550 1551 1552 1554 1556 1557 1558 1560 1561 1562 1563 1563 1565 1565 1566 1567 1568 1568 1569 1570 1571 1572
1502 1500 1498 1497 1496 1494 1493 1491 1489 1488 1487 1486 1486 1486 1486 1486 1486 1487 1487 1487 1487 1488 1489 1489 1490 1491 1493 1494 1495 1496 1498 1499 1501 1502 1503 1505 1507 1509 1511 1513 1515 1517 1518 1521 1524 1527 1527 1528 1528 1529 1530 1531 1532 1534 1535 1537 1538 1540 1542 1543 1545 1546 1547 1548 1549 1549 1551 1554 1556 1557 1558 1559 1560 1561 1562 1563 1564 1564 1565 1566 1567 1568 1568 1569 1570
1501 1499 1498 1496 1494 1493 1491 1490 1488 1487 1485 1484 1483 1483 1483 1483 1483 1484 1484 1484 1484 1485 1486 1486 1486 1488 1490 1491 1492 1494 1495 1496 1498 1500 1502 1504 1506 1507 1509 1512 1514 1516 1517 1519 1523 1525 1525 1526 1526 1527 1528 1529 1531 1532 1533 1534 1536 1538 1540 1542 1543 1544 1545 1546 1547 1547 1550 1553 1554 1555 1556 1557 1558 1559 1560 1561 1561 1562 1563 1565 1565 1566 1567 1568 1569
1502 1500 1498 1496 1494 1492 1490 1488 1487 1485 1484 1482 1481 1481 1481 1480 1480 1480 1481 1481 1481 1481 1482 1483 1483 1484 1486 1488 1489 1491 1492 1494 1496 1498 1500 1502 1504 1506 1508 1510 1513 1514 1515 1518 1520 1521 1522 1524 1525 1526 1527 1528 1529 1530 1531 1532 1534 1536 1538 1539 1541 1542 1543 1544 1545 1546 1548 1550 1551 1552 1554 1555 1556 1557 1558 1559 1560 1561 1562 1563 1564 1565 1566 1566 1567
1503 1501 1499 1497 1494 1492 1489 1487 1485 1483 1482 1481 1480 1479 1479 1478 1478 1478 1477 1477 1477 1478 1479 1479 1480 1481 1483 1485 1486 1488 1489 1491 1493 1496 1498 1501 1502 1504 1506 1508 1511 1512 1514 1517 1518 1518 1520 1522 1523 1525 1526 1527 1528 1528 1529 1531 1532 1533 1535 1536 1538 1540 1541 1542 1543 1544 1546 1546 1548 1550 1551 1552 1553 1555 1556 1557 1558 1559 1560 1562 1563 1563 1564 1565 1566
1505 1502 1499 1497 1494 1491 1488 1485 1483 1482 1481 1480 1479 1478 1478 1477 1476 1476 1475 1475 1475 1475 1475 1476 1477 1478 1480 1482 1483 1485 1486 1489 1492 1494 1496 1498 1500 1502 1504 1506 1509 1511 1513 1516 1517 1517 1519 1521 1522 1524 1525 1526 1527 1527 1528 1529 1530 1531 1533 1534 1536 1538 1539 1540 1540 1542 1543 1544 1545 1547 1549 1550 1551 1553 1554 1555 1556 1557 1558 1559 1561 1562 1562 1563 1564
1506 1503 1500 1497 1494 1491 1488 1485 1483 1481 1480 1479 1478 1477 1477 1476 1475 1474 1473 1472 1472 1472 1472 1473 1474 1475 1476 1478 1480 1482 1484 1487 1490 1492 1494 1496 1498 1500 1502 1504 1507 1509 1512 1515 1517 1518 1519 1520 1521 1523 1524 1524 1525 1526 1526 1527 1528 1529 1531 1532 1533 1535 1536 1537 1538 1539 1541 1541 1542 1544 1546 1548 1549 1550 1551 1553 1554 1555 1556 1557 1559 1560 1561 1562 1562
1507 1504 1501 1497 1494 1491 1488 1486 1483 1481 1480 1479 1478 1477 1475 1474 1473 1471 1470 1470 1470 1470 1471 1471 1472 1472 1473 1475 1478 1480 1483 1486 1488 1490 1492 1494 1496 1499 1501 1503 1505 1508 1511 1514 1516 1517 1518 1519 1520 1521 1522 1523 1524 1524 1525 1526 1527 1528 1529 1530 1531 1533 1534 1535 1536 1537 1538 1539 1540 1542 1545 1546 1547 1548 1549 1550 1552 1553 1554 1555 1557 1558 1559 1559 1560
1507 1505 1501 1498 1495 1492 1489 1487 1484 1481 1480 1478 1477 1476 1474 1472 1471 1469 1468 1468 1468 1468 1468 1469 1469 1470 1471 1473 1475 1479 1482 1485 1487 1489 1491 1493 1495 1497 1500 1502 1504 1507 1510 1512 1514 1516 1517 1518 1519 1520 1520 1521 1522 1523 1524 1525 1526 1527 1528 1529 1530 1531 1532 1533 1534 1535 1536 1537 1538 1541 1543 1544 1546 1547 1547 1548 1550 1551 1552 1554 1555 1556 1557 1557 1557
1508 1505 1502 1499 1496 1493 1491 1488 1485 1482 1480 1478 1477 1475 1473 1471 1469 1468 1466 1465 1466 1466 1467 1467 1467 1467 1468 1470 1473 1477 1480 1483 1485 1487 1489 1491 1494 1496 1499 1501 1504 1506 1509 1511 1513 1514 1515 1516 1517 1518 1519 1520 1520 1521 1522 1523 1524 1525 1526 1527 1528 1530 1531 1532 1533 1533 1534 1535 1537 1539 1541 1542 1544 1545 1546 1546 1548 1549 1550 1552 1553 1554 1555 1555 1555
1508 1506 1503 1500 1497 1495 1492 1489 1486 1484 1481 1479 1477 1474 1472 1470 1468 1467 1466 1465 1465 1465 1465 1465 1465 1465 1467 1469 1471 1475 1478 1481 1484 1487 1488 1490 1493 1496 1498 1501 1503 1506 1508 1510 1511 1513 1514 1515 1516 1517 1518 1519 1519 1520 1521 1522 1523 1524 1525 1526 1527 1528 1530 1531 1532 1532 1533 1534 1536 1538 1540 1541 1543 1544 1544 1545 1547 1548 1549 1550 1551 1552 1553 1553 1554
1508 1506 1504 1502 1499 1496 1493 1491 1488 1486 1483 1480 1478 1475 1472 1470 1468 1467 1466 1466 1465 1465 1465 1465 1465 1465 1466 1469 1471 1474 1477 1479 1481 1485 1488 1490 1493 1496 1498 1501 1503 1505 1507 1508 1510 1511 1513 1514 1515 1516 1517 1518 1518 1519 1520 1521 1521 1522 1523 1524 1526 1527 1529 1530 1531 1532 1533 1534 1536 1537 1539 1540 1541 1542 1543 1544 1545 1546 1547 1548 1549 1550 1551 1552 1552
1510 1508 1506 1503 1501 1498 1495 1493 1490 1487 1485 1482 1480 1478 1475 1472 1471 1469 1469 1468 1467 1467 1467 1467 1467 1466 1467 1470 1472 1474 1477 1480 1481 1483 1487 1491 1494 1496 1498 1500 1502 1504 1506 1507 1509 1510 1512 1513 1515 1516 1516 1517 1518 1518 1519 1520 1520 1521 1522 1524 1525 1527 1528 1529 1530 1532 1533 1535 1536 1537 1539 1540 1541 1542 1542 1543 1543 1545 1546 1547 1548 1548 1549 1550 1550
1512 1510 1508 1505 1503 1500 1497 1494 1492 1489 1487 1484 1483 1481 1479 1476 1474 1473 1473 1472 1471 1470 1470 1469 1470 1470 1470 1472 1474 1475 1477 1480 1482 1485 1488 1492 1495 1497 1498 1500 1502 1503 1504 1506 1507 1509 1511 1512 1514 1515 1516 1516 1517 1518 1519 1519 1520 1521 1522 1524 1526 1527 1528 1529 1531 1532 1533 1534 1535 1536 1538 1540 1540 1541 1541 1542 1542 1543 1544 1545 1546 1546 1547 1547 1548
1514 1513 1510 1507 1505 1501 1499 1496 1494 1491 1489 1487 1486 1485 1483 1481 1479 1478 1477 1477 1476 1474 1473 1472 1473 1473 1474 1476 1478 1479 1479 1480 1483 1487 1490 1493 1495 1497 1498 1500 1501 1502 1504 1505 1506 1508 1509 1511 1513 1514 1515 1516 1516 1517 1518 1519 1520 1521 1522 1524 1525 1527 1528 1529 1530 1531 1532 1533 1534 1535 1537 1538 1539 1539 1540 1540 1541 1541 1542 1542 1543 1543 1544 1544 1545
1516 1514 1512 1509 1506 1503 1500 1498 1496 1494 1492 1490 1489 1487 1486 1485 1484 1482 1481 1480 1480 1479 1478 1477 1476 1476 1478 1480 1482 1482 1483 1483 1485 1489 1492 1494 1496 1497 1499 1500 1501 1502 1503 1504 1505 1507 1508 1509 1511 1512 1514 1515 1516 1517 1518 1519 1519 1520 1522 1523 1524 1526 1527 1528 1530 1531 1532 1533 1534 1535 1535 1536 1537 1537 1538 1538 1539 1539 1540 1540 1540 1541 1541 1541 1542
1517 1516 1514 1511 1508 1505 1503 1500 1498 1496 1494 1493 1492 1490 1489 1487 1486 1485 1484 1483 1483 1482 1481 1480 1479 1479 1481 1483 1484 1485 1486 1488 1490 1491 1493 1495 1496 1498 1499 1500 1501 1501 1502 1503 1504 1505 1507 1508 1510 1511 1512 1514 1515 1516 1517 1518 1519 1520 1521 1523 1524 1525 1527 1528 1529 1530 1531 1532 1533 1534 1534 1535 1535 1535 1536 1536 1537 1537 1537 1537 1538 1538 1538 1539 1539
1519 1517 1515 1513 1510 1507 1505 1503 1501 1499 1497 1496 1494 1493 1492 1490 1488 1487 1486 1485 1485 1484 1483 1483 1483 1483 1484 1485 1487 1488 1490 1492 1493 1494 1494 1496 1497 1498 1499 1500 1501 1501 1502 1502 1503 1504 1506 1507 1509 1510 1511 1512 1514 1515 1516 1517 1518 1519 1521 1522 1523 1525 1526 1527 1528 1529 1530 1531 1532 1532 1533 1533 1533 1534 1534 1534 1535 1535 1535 1535 1536 1536 1536 1536 1537
1521 1518 1516 1514 1512 1510 1508 1506 1504 1502 1500 1499 1497 1496 1495 1494 1492 1490 1489 1487 1486 1485 1485 1485 1486 1486 1487 1488 1489 1490 1491 1493 1494 1495 1495 1496 1497 1498 1499 1500 1501 1502 1502 1503 1504 1504 1506 1507 1508 1510 1511 1512 1513 1514 1516 1518 1518 1519 1521 1522 1523 1524 1525 1526 1527 1528 1529 1530 1530 1531 1531 1532 1532 1532 1532 1533 1534 1534 1534 1534 1534 1535 1535 1535 1535
1522 1520 1518 1516 1514 1512 1511 1508 1507 1505 1503 1502 1500 1499 1498 1497 1495 1494 1492 1490 1488 1488 1487 1488 1488 1488 1489 1490 1491 1492 1493 1494 1494 1495 1496 1497 1497 1498 1499 1500 1501 1502 1503 1504 1504 1505 1506 1507 1509 1511 1512 1513 1513 1514 1516 1518 1518 1519 1520 1521 1522 1523 1524 1525 1526 1527 1528 1529 1529 1530 1531 1531 1531 1531 1531 1532 1532 1533 1533 1533 1533 1533 1533 1533 1533
1524 1522 1520 1518 1517 1515 1513 1511 1509 1508 1506 1504 1503 1501 1500 1499 1498 1497 1495 1494 1492 1491 1490 1491 1491 1491 1491 1492 1493 1495 1495 1495 1496 1497 1497 1497 1498 1499 1500 1501 1502 1503 1504 1504 1505 1506 1507 1507 1510 1512 1513 1513 1514 1515 1517 1518 1519 1519 1520 1521 1521 1523 1524 1525 1526 1526 1527 1528 1529 1530 1530 1530 1530 1530 1530 1531 1531 1531 1532 1532 1532 1532 1532 1532 1532
1526 1524 1523 1521 1519 1517 1515 1513 1512 1510 1509 1507 1505 1504 1503 1501 1500 1499 1498 1497 1496 1494 1494 1494 1494 1494 1494 1495 1496 1497 1497 1497 1498 1499 1499 1499 1499 1501 1502 1502 1503 1504 1505 1505 1506 1507 1508 1509 1511 1513 1513 1514 1515 1516 1518 1518 1519 1519 1520 1521 1521 1522 1523 1524 1525 1526 1527 1528 1528 1529 1529 1529 1530 1530 1530 1530 1530 1531 1531 1531 1531 1531 1531 1531 1532
1529 1527 1525 1523 1521 1519 1517 1516 1514 1512 1511 1509 1507 1506 1504 1503 1502 1501 1500 1500 1499 1498 1497 1496 1496 1496 1497 1498 1499 1500 1500 1500 1500 1500 1501 1502 1502 1503 1504 1505 1505 1505 1506 1507 1508 1509 1510 1511 1513 1514 1514 1514 1516 1517 1518 1518 1519 1520 1520 1521 1521 1522 1523 1524 1525 1526 1526 1527 1527 1528 1528 1529 1529 1529 1530 1530 1530 1530 1530 1530 1531 1531 1531 1531 1531
1531 1529 1527 1525 1523 1521 1520 1518 1517 1515 1513 1512 1510 1508 1507 1505 1504 1503 1503 1502 1501 1501 1500 1499 1498 1498 1498 1499 1499 1501 1501 1502 1503 1503 1504 1504 1505 1506 1506 1507 1507 1507 1508 1509 1511 1512 1513 1514 1515 1516 1515 1515 1516 1518 1518 1519 1520 1520 1521 1521 1522 1522 1523 1524 1525 1525 1526 1526 1527 1527 1527 1528 1528 1529 1529 1529 1529 1529 1529 1530 1530 1530 1530 1530 1530
1533 1531 1529 1527 1525 1523 1522 1521 1519 1518 1517 1515 1513 1512 1510 1509 1508 1507 1506 1505 1504 1503 1502 1502 1501 1501 1501 1501 1501 1502 1503 1504 1504 1505 1506 1506 1507 1508 1508 1508 1509 1509 1509 1510 1512 1514 1515 1516 1516 1517 1517 1516 1517 1518 1518 1519 1520 1521 1521 1522 1522 1523 1523 1524 1525 1525 1525 1526 1526 1526 1526 1527 1527 1527 1528 1528 1529 1529 1529 1529 1529 1529 1529 1529 1529
1534 1532 1531 1529 1527 1526 1524 1523 1522 1521 1520 1519 1517 1515 1514 1513 1512 1510 1510 1509 1508 1507 1506 1505 1505 1504 1504 1504 1504 1505 1505 1506 1507 1507 1507 1508 1509 1509 1510 1510 1510 1510 1511 1511 1512 1514 1516 1517 1517 1517 1517 1517 1518 1518 1519 1520 1521 1521 1521 1522 1522 1523 1524 1524 1524 1525 1525 1526 1526 1526 1526 1526 1526 1527 1528 1528 1529 1529 1529 1529 1529 1529 1529 1529 1529
1536 1534 1533 1531 1530 1528 1527 1526 1524 1523 1522 1521 1520 1518 1517 1516 1515 1514 1513 1513 1512 1511 1510 1509 1508 1508 1508 1508 1508 1508 1508 1508 1509 1510 1510 1510 1510 1511 1511 1511 1512 1512 1513 1513 1513 1514 1516 1517 1517 1518 1518 1518 1519 1520 1521 1521 1522 1522 1522 1522 1523 1523 1524 1524 1525 1525 1526 1526 1526 1525 1526 1526 1526 1527 1527 1528 1528 1529 1529 1529 1529 1529 1529 1529 1528
1538 1536 1535 1533 1532 1530 1529 1528 1526 1525 1524 1524 1522 1521 1520 1519 1518 1517 1516 1516 1515 1514 1513 1512 1512 1511 1511 1511 1511 1511 1511 1511 1512 1512 1512 1512 1513 1513 1513 1513 1514 1514 1515 1515 1514 1515 1517 1517 1518 1518 1519 1520 1521 1521 1522 1522 1523 1523 1523 1523 1523 1524 1524 1525 1525 1526 1526 1526 1526 1526 1526 1526 1526 1527 1527 1528 1528 1529 1529 1529 1529 1529 1529 1528 1528
1540 1538 1537 1535 1534 1533 1532 1530 1529 1528 1527 1526 1525 1524 1523 1522 1521 1520 1519 1519 1518 1517 1516 1515 1515 1514 1514 1514 1514 1514 1514 1514 1514 1514 1514 1514 1515 1515 1516 1516 1516 1516 1516 1515 1515 1516 1517 1518 1518 1519 1520 1522 1523 1523 1523 1524 1524 1524 1524 1524 1524 1524 1524 1525 1526 1526 1526 1526 1526 1526 1526 1526 1527 1527 1528 1528 1529 1529 1529 1529 1529 1528 1528 1528 1528
1542 1540 1539 1538 1536 1535 1534 1533 1531 1530 1529 1528 1527 1526 1525 1524 1523 1522 1522 1521 1520 1519 1519 1518 1517 1517 1516 1516 1516 1516 1515 1515 1515 1515 1516 1516 1516 1517 1517 1517 1517 1517 1517 1517 1517 1517 1518 1518 1519 1520 1522 1523 1524 1524 1525 1525 1525 1525 1525 1524 1524 1525 1525 1526 1526 1526 1527 1527 1527 1527 1527 1527 1527 1528 1528 1529 1529 1529 1529 1529 1529 1529 1529 1529 1529
1543 1542 1541 1540 1538 1537 1536 1535 1534 1532 1531 1530 1529 1528 1527 1527 1526 1525 1524 1523 1523 1522 1521 1520 1520 1519 1519 1518 1518 1517 1517 1517 1517 1517 1517 1517 1518 1518 1518 1518 1518 1518 1518 1518 1519 1519 1519 1519 1520 1521 1523 1524 1525 1526 1526 1525 1525 1525 1525 1525 1525 1525 1525 1526 1527 1527 1527 1528 1527 1527 1528 1528 1528 1529 1529 1529 1529 1529 1529 1529 1529 1530 1530 1530 1530
1545 1544 1543 1541 1540 1539 1538 1537 1536 1534 1533 1532 1530 1529 1529 1528 1527 1527 1526 1525 1525 1524 1524 1523 1522 1521 1521 1520 1520 1519 1519 1519 1518 1518 1518 1518 1519 1519 1519 1519 1519 1519 1519 1519 1520 1520 1520 1520 1521 1522 1524 1525 1526 1526 1526 1526 1526 1526 1525 1525 1526 1526 1526 1526 1527 1528 1529 1529 1528 1528 1529 1529 1529 1529 1529 1529 1530 1530 1530 1531 1531 1531 1531 1530 1530
1546 1545 1544 1543 1542 1541 1540 1539 1537 1536 1535 1533 1532 1531 1530 1529 1529 1528 1527 1527 1526 1526 1525 1525 1524 1523 1522 1522 1521 1521 1520 1520 1519 1519 1519 1519 1519 1520 1520 1520 1520 1520 1520 1520 1520 1521 1521 1521 1522 1523 1524 1525 1525 1525 1525 1526 1526 1526 1526 1527 1526 1526 1526 1527 1528 1529 1530 1530 1529 1529 1529 1529 1530 1530 1530 1530 1531 1531 1531 1532 1532 1532 1531 1531 1531
1547 1546 1545 1544 1543 1542 1541 1540 1539 1538 1536 1535 1534 1532 1531 1530 1529 1529 1528 1528 1527 1527 1526 1526 1525 1525 1524 1523 1522 1522 1521 1520 1520 1519 1519 1519 1519 1520 1520 1520 1520 1521 1521 1521 1521 1521 1522 1522 1523 1524 1525 1525 1525 1525 1525 1526 1526 1527 1527 1527 1527 1527 1527 1528 1530 1530 1531 1531 1530 1530 1530 1530 1531 1531 1531 1532 1532 1532 1532 1532 1532 1532 1532 1532 1531
1548 1547 1546 1545 1544 1543 1542 1541 1540 1539 1538 1536 1535 1534 1532 1531 1530 1529 1529 1528 1528 1528 1527 1527 1526 1526 1525 1524 1523 1522 1521 1520 1519 1518 1518 1518 1519 1519 1520 1520 1521 1521 1521 1521 1521 1522 1522 1523 1523 1524 1525 1525 1526 1526 1526 1526 1527 1527 1527 1528 1528 1528 1529 1530 1531 1531 1531 1531 1531 1531 1532 1532 1532 1533 1533 1533 1533 1533 1533 1532 1532 1532 1532 1532 1532
1548 1547 1546 1545 1545 1544 1543 1542 1541 1540 1539 1538 1537 1535 1534 1532 1531 1530 1529 1529 1528 1528 1527 1527 1527 1526 1526 1525 1524 1522 1521 1519 1518 1518 1518 1518 1518 1519 1520 1520 1521 1521 1521 1521 1521 1522 1523 1523 1524 1525 1525 1526 1526 1526 1527 1527 1527 1528 1528 1528 1529 1530 1530 1531 1532 1532 1532 1532 1532 1533 1533 1533 1534 1534 1534 1533 1533 1533 1533 1533 1533 1533 1533 1532 1532
1548 1547 1547 1546 1545 1544 1544 1543 1542 1541 1540 1539 1538 1537 1535 1533 1532 1531 1530 1529 1529 1528 1528 1527 1527 1527 1527 1526 1524 1523 1521 1520 1519 1518 1517 1518 1518 1519 1519 1520 1520 1521 1521 1521 1522 1523 1523 1524 1525 1525 1526 1526 1526 1527 1527 1527 1528 1528 1529 1530 1530 1531 1531 1532 1533 1533 1533 1534 1534 1534 1534 1534 1534 1534 1534 1534 1534 1534 1534 1534 1533 1533 1533 1532 1532
1548 1547 1547 1546 1545 1544 1544 1543 1542 1541 1541 1540 1538 1537 1536 1535 1533 1532 1531 1530 1529 1529 1528 1528 1528 1528 1527 1526 1525 1523 1522 1520 1519 1519 1518 1518 1518 1519 1519 1520 1520 1521 1521 1522 1523 1523 1524 1525 1525 1525 1526 1526 1527 1527 1528 1528 1529 1529 1530 1530 1531 1532 1532 1533 1534 1534 1534 1535 1535 1535 1535 1535 1535 1535 1535 1535 1535 1535 1534 1534 1534 1533 1533 1532 1532
1548 1548 1547 1546 1545 1544 1544 1543 1543 1542 1541 1540 1539 1538 1537 1536 1535 1533 1532 1531 1530 1530 1529 1529 1528 1528 1528 1527 1526 1524 1523 1522 1521 1520 1520 1519 1519 1520 1520 1520 1521 1522 1522 1523 1524 1524 1525 1525 1526 1526 1527 1527 1527 1528 1528 1529 1529 1530 1530 1531 1532 1533 1533 1534 1534 1534 1535 1535 1535 1535 1535 1535 1535 1535 1535 1535 1535 1535 1534 1534 1534 1533 1533 1533 1533
1548 1547 1547 1546 1545 1544 1543 1543 1542 1542 1541 1540 1539 1538 1537 1536 1535 1534 1533 1532 1531 1530 1529 1529 1529 1529 1528 1527 1527 1526 1524 1523 1523 1522 1522 1521 1521 1521 1522 1522 1522 1523 1523 1524 1524 1525 1525 1526 1526 1527 1527 1528 1528 1529 1529 1529 1530 1530 1531 1532 1532 1533 1533 1534 1534 1534 1535 1535 1535 1535 1535 1535 1535 1535 1535 1535 1535 1535 1535 1534 1534 1534 1534 1534 1534
1548 1547 1546 1546 1545 1544 1543 1543 1542 1542 1541 1540 1539 1538 1537 1536 1535 1535 1534 1533 1532 1531 1530 1529 1529 1529 1528 1528 1527 1526 1526 1525 1524 1523 1523 1523 1523 1523 1523 1523 1524 1524 1524 1525 1525 1526 1526 1527 1527 1528 1528 1528 1529 1529 1529 1530 1530 1531 1531 1532 1532 1532 1533 1533 1534 1534 1534 1534 1534 1535 1535 1535 1535 1535 1535 1535 1535 1535 1535 1535 1535 1535 1535 1535 1535
1548 1547 1546 1545 1544 1544 1543 1543 1542 1542 1541 1540 1539 1539 1538 1537 1536 1535 1534 1533 1532 1531 1530 1529 1529 1528 1528 1528 1528 1527 1527 1526 1525 1525 1524 1524 1524 1524 1524 1525 1525 1525 1525 1526 1526 1527 1527 1527 1528 1528 1529 1529 1529 1529 1530 1530 1530 1530 1531 1531 1532 1532 1533 1533 1533 1534 1534 1534 1534 1534 1534 1534 1535 1534 1534 1534 1535 1535 1535 1535 1535 1535 1535 1535 1535
1547 1547 1546 1545 1544 1544 1543 1543 1542 1541 1541 1540 1539 1539 1538 1537 1536 1535 1534 1533 1532 1531 1530 1529 1529 1528 1528 1528 1528 1527 1527 1527 1526 1526 1525 1525 1525 1525 1525 1525 1526 1526 1526 1526 1527 1527 1527 1528 1528 1528 1529 1529 1529 1530 1530 1530 1530 1530 1531 1531 1531 1532 1532 1533 1533 1533 1534 1534 1534 1534 1534 1534 1534 1534 1534 1534 1534 1535 1535 1535 1535 1535 1535 1535 1535
1547 1546 1546 1545 1544 1544 1543 1543 1542 1541 1540 1540 1539 1538 1537 1536 1536 1534 1533 1533 1532 1531 1530 1529 1529 1528 1528 1528 1528 1528 1527 1527 1527 1526 1526 1526 1526 1525 1526 1526 1526 1526 1527 1527 1527 1527 1528 1528 1528 1529 1529 1529 1530 1530 1530 1530 1531 1531 1531 1531 1531 1532 1532 1532 1533 1533 1533 1534 1534 1534 1534 1534 1534 1534 1534 1534 1534 1534 1534 1534 1534 1535 1535 1535 1535
1547 1546 1545 1545 1544 1544 1543 1543 1542 1541 1540 1540 1539 1538 1537 1536 1535 1534 1533 1532 1531 1530 1530 1529 1528 1528 1528 1528 1528 1528 1527 1527 1527 1527 1527 1527 1526 1526 1526 1526 1526 1526 1527 1527 1527 1527 1528 1528 1529 1529 1529 1530 1530 1530 1531 1531 1531 1531 1531 1531 1532 1532 1532 1533 1533 1533 1533 1533 1533 1533 1534 1534 1534 1534 1534 1534 1534 1534 1534 1534 1534 1534 1534 1534 1534
1547 1546 1545 1544 1543 1543 1542 1542 1541 1541 1540 1539 1538 1537 1537 1536 1535 1534 1533 1531 1531 1530 1530 1529 1528 1528 1527 1527 1527 1527 1527 1527 1527 1527 1527 1527 1527 1526 1526 1526 1526 1527 1527 1527 1527 1528 1528 1528 1529 1529 1530 1530 1530 1531 1531 1531 1531 1531 1532 1532 1532 1532 1532 1532 1533 1533 1533 1533 1533 1533 1533 1533 1533 1533 1533 1533 1533 1533 1533 1533 1533 1533 1533 1534 1534